Regional Weather Roundup
Issued by NWS

Home | Current Version | Previous Version | Graphics & Text | Print | Product List | Glossary Off
Versions: 1 2 3 4 5 6 7 8 9 10 11 12 13 14 15 16 17 18 19 20 21 22 23 24 25 26 27 28 29 30 31 32 33 34 35 36 37 38 39 40 41 42 43 44 45 46 47 48 49 50

000
ASUS43 KDMX 132107
RWRIA

WEATHER ROUNDUP FOR IOWA
NATIONAL WEATHER SERVICE DES MOINES IA
400 PM CDT SUN JUL 13 2014

NOTE: "FAIR" INDICATES FEW OR NO CLOUDS BELOW 12,000 FEET WITH NO
SIGNIFICANT WEATHER AND/OR OBSTRUCTIONS TO VISIBILITY.

* - THESE STATIONS ARE NOT NWS STATIONS...THUS NOT UNDER NWS
QUALITY CONTROL.  THEY ALSO DO NOT REPORT WEATHER SUCH
AS PRECIPITATION OR FOG.

IAZ001>003-012>014-020>022-031>034-043>046-132200-
   NORTHWEST IOWA

CITY           SKY/WX    TMP DP  RH WIND       PRES   REMARKS
CARROLL *      SUNNY     82  64  54 N12       29.99F HX  84
CHEROKEE *     PTSUNNY   79  59  50 NW10      29.99F HX  80
DENISON *      SUNNY     81  66  61 NW7       29.99S HX  83
LE MARS *      SUNNY     81  64  57 VRB5      30.00F HX  82
ORANGE CITY *  MOSUNNY   81  61  50 W10       30.00F HX  81
SHELDON *      MOSUNNY   81  61  50 W12       29.98F HX  81
SIOUX CITY     PTSUNNY   84  61  45 NW7       30.00F HX  84
SPENCER        MOSUNNY   81  59  47 NW15      29.99F HX  81
STORM LAKE *   SUNNY     81  63  54 W12G18    30.01F HX  82
$$

IAZ055>058-069>071-079>083-090>094-132200-
   SOUTHWEST IOWA

CITY           SKY/WX    TMP DP  RH WIND       PRES   REMARKS
ATLANTIC *     MOSUNNY   82  68  61 NW6       29.99S HX  85
AUDUBON *      SUNNY     88  72  58 W9        30.01S HX  94
CLARINDA *     MOSUNNY   86  70  58 N5        30.01S HX  90
COUNCIL BLFS * MOSUNNY   84  70  61 NW8       29.99F HX  88
CRESTON *      MOSUNNY   84  66  54 NW8G14    30.00F HX  86
HARLAN  *      MOSUNNY   84  68  58 NW7       30.03S HX  87
LAMONI         MOSUNNY   84  67  56 N7        29.99F HX  86
RED OAK *      SUNNY     88  66  48 VRB5      30.00S HX  90
SHENANDOAH *   SUNNY     86  68  54 VRB5      30.00F HX  89
$$

IAZ047>049-059>061-072>074-084-132200-
   CENTRAL IOWA

CITY           SKY/WX    TMP DP  RH WIND       PRES   REMARKS
AMES           MOSUNNY   80  71  74 W8        29.97F HX  84
ANKENY *       CLOUDY    72  68  88 N7        29.97S
CHARITON *     MOSUNNY   84  66  54 NW7       29.98S HX  86
DES MOINES     MOSUNNY   85  64  49 NW15G24   29.96S HX  86
GRINNELL*      CLOUDY    77  64  65 N6        29.97S
KNOXVILLE *    SUNNY     84  64  51 W8        29.95F HX  86
MARSHALLTOWN   PTSUNNY   81  64  56 NW14      29.96S HX  82
PELLA *        SUNNY     86  66  51 W8        29.97F HX  88
PERRY *        LGT RAIN  77  66  69 N5        29.99S
$$

IAZ004>006-015-016-023>025-035-036-132200-
   NORTH CENTRAL IOWA

CITY           SKY/WX    TMP DP  RH WIND       PRES   REMARKS
ALGONA *       SUNNY     81  59  47 NW12G17   29.97F HX  81
CLARION *      PTSUNNY   79  63  57 NW9       29.97F HX  80
ESTHERVILLE    MOSUNNY   79  55  43 NW14      29.97F
FORT DODGE *   MOSUNNY   82  61  47 NW8       29.98F HX  83
MASON CITY     SUNNY     81  56  42 NW16      29.98F HX  81
FOREST CITY *  MOSUNNY   79  55  44 W14       29.96F
IOWA FALLS *     N/A     82  55  39 W17       29.97F HX  82
$$

IAZ007>011-017>019-026>030-037>042-050>054-066-132200-
   NORTHEAST IOWA

CITY           SKY/WX    TMP DP  RH WIND       PRES   REMARKS
CEDAR RAPIDS   DRIZZLE   74  61  63 N8        29.94R
CHARLES CITY * MOSUNNY   79  57  47 NW16G23   29.96F HX  80
CLINTON *      MOSUNNY   82  70  65 W9        29.95F HX  86
DECORAH *        N/A    N/A N/A N/A MISG        N/A
DUBUQUE        SUNNY     80  61  52 NW17      29.93F HX  81
MONTICELLO *   SUNNY     82  64  54 NW12G20   29.93S HX  84
OELWEIN *      SUNNY     79  66  65 NW12G21   29.95S HX  81
WATERLOO       MOSUNNY   83  61  47 NW17G24   29.93F HX  83
$$

IAZ064-065-067-068-078-132200-
   EAST CENTRAL IOWA

CITY           SKY/WX    TMP DP  RH WIND       PRES   REMARKS
DAVENPORT        N/A     82  68  62 W8        29.94F HX  85
IOWA CITY      SUNNY     84  67  56 W14       29.95F HX  86
MT. PLEASANT * MOSUNNY   84  63  48 NW3       29.96F HX  85
MUSCATINE *    MOSUNNY   84  66  54 W12       29.94F HX  86
QUAD CITIES    SUNNY     84  67  56 W8        29.93F HX  86
$$

IAZ062-063-075>077-085>089-095>099-132200-
   SOUTHEAST IOWA

CITY           SKY/WX    TMP DP  RH WIND       PRES   REMARKS
BURLINGTON     MOSUNNY   84  68  58 W5        29.96S HX  87
FAIRFIELD *    SUNNY     82  66  57 VRB6      29.96F HX  85
FORT MADISON * SUNNY     84  70  61 N5        29.97F HX  88
KEOKUK *       PTSUNNY   84  72  65 E7        29.96S HX  89
OSKALOOSA *      N/A     84  68  58 CALM      29.96F HX  87
CENTERVILLE *  MOSUNNY   84  70  61 NW7       30.00S HX  88
OTTUMWA        SUNNY     83  66  56 CALM      29.96F HX  85
WASHINGTON *   SUNNY     84  66  54 W9        29.95F HX  86
$$

ABBREVIATIONS USED IN REMARKS
   TC - TEMPERATURES IN CELSIUS
  WCI - WIND CHILL INDEX
   HX - HEAT INDEX
  VSB - VISIBILITY
$$



USA.gov is the U.S. government's official web portal to all federal, state and local government web resources and services.